Home > Weather > Pärnu > Past weeks

Flag for Estonia Weather for the Past 2 Weeks in Pärnu, Estonia

Now
35 °F

Overcast.


Feels Like: 31 °F
Forecast: 28 / 33 °F
Wind: 5 mph from Southeast

Location: Pjarnu

Current Time: Feb 14, 2016 at 2:47:03 AM

Latest Report: Feb 14, 2016 at 1:00 AM


Visibility: 22 mi

Pressure: 29.61 "Hg

Humidity: 89%

Dew point: 32 °F

Location of PärnuLocation

Historic Weather in Pärnu — Graph

°F

Pärnu Temperature Yesterday

Maximum temperature yesterday: 36 °F (at 3:00 PM)
Minimum temperature yesterday: 32 °F (at 8:00 AM)
Average temperature yesterday: 34 °F

High & Low Weather Summary for the Past Weeks

 TemperatureHumidityPressure
High44 °F (Feb 10, 4:00 PM)99% (Feb 7, 6:00 AM)30.03 "Hg (Feb 7, 6:00 AM)
Low24 °F (Feb 6, 6:00 AM)75% (Feb 5, 9:00 PM)28.94 "Hg (Feb 2, 8:00 AM)
Average35 °F92%29.46 "Hg
* Reported Jan 29 10:00 PM — Feb 13 10:00 PM, Pärnu, Weather by CustomWeather, © 2016

Note: Actual official high and low records may vary slightly from our data, if they occured in-between our weather recording intervals... More about our weather records

Advertising

Pärnu Weather History for the Previous 24 Hours

 ConditionsComfort  
Time TempWeatherWind HumidityBarometerVisibility
10:00 PM
Sat, Feb 13
34 °FPassing clouds.3 mph95%29.63 "Hg10 mi
9:00 PM34 °FRain showers. Overcast.2 mph94%29.65 "Hg6 mi
8:00 PM34 °FFog.3 mph96%29.66 "Hg4 mi
7:00 PM34 °FOvercast.2 mph95%29.67 "Hg4 mi
6:00 PM33 °FFreezing rain. Low clouds.2 mph95%29.69 "Hg2 mi
5:00 PM36 °FLight rain. Low clouds.3 mph91%29.70 "Hg10 mi
4:00 PM36 °FSprinkles. Overcast.2 mph92%29.70 "Hg7 mi
3:00 PM36 °FOvercast.2 mph93%29.71 "Hg7 mi
2:00 PM35 °FOvercast.2 mph95%29.71 "Hg7 mi
1:00 PM34 °FOvercast.1 mph95%29.72 "Hg22 mi
12:00 PM32 °FSnow flurries. Low clouds.2 mph96%29.72 "Hg4 mi
11:00 AM33 °FSnow flurries. Overcast.5 mph96%29.71 "Hg6 mi
10:00 AM33 °FSprinkles. Overcast.5 mph95%29.69 "Hg11 mi
9:00 AM32 °FLight snow. Overcast.7 mph96%29.67 "Hg6 mi
8:00 AM32 °FLight rain. Low clouds.8 mph94%29.66 "Hg1 mi
7:00 AM34 °FOvercast.7 mph93%29.63 "Hg25 mi
6:00 AM34 °FOvercast.8 mph92%29.62 "Hg31 mi
2:00 AM33 °FLight rain. Low clouds.5 mph97%29.58 "Hg9 mi
Weather by CustomWeather, © 2016

See weather overviewHow to use our weather pages